Starlink 30313

operational
NORAD ID: 57676 Int'l Des: 2023-124 Owner: SPXS Country: US Constellation: starlink
LEOCIRCULAR

Über Starlink 30313

Beschreibung wird geladen...

Live-Position

3D-Globus wird geladen...

Nächste Überflüge

Höhenverlauf

Altitude vs Time

uPlot chart will show altitude changes over time

Zweizeiliger Elementsatz

1 57676U 23124P 25259.47931582 -.00001235 00000-0 -29581-4 0 9997
2 57676 53.1608 296.1783 0001366 82.9209 277.1948 15.30185324116893
Epoch: 16. Sept. 2025 • Age: 39 hours

Aktueller Status

Höhe 476.9 km
Geschwindigkeit 7.63 km/s
Subsatellitenpunkt -4.49°S, 112.06°W
Startdatum 22. Aug. 2023
Alter 2 years
Typ internet

Technische Details

Klassifizierung Payload
Masse 730.00 kg
Trockenmasse 700.00 kg
Gesamtmasse 730.00 kg
Länge 0.30 m
Durchmesser 4.10 m
Spannweite 29.00 m
Form Box + pan
Hersteller SPXS
Bus-Typ Starlink V2M
Phasenstatus In Orbit
Besitzer/Staat SPXS/US

Große Konstellationen

Loading constellations...